Regional Weather Roundup
Issued by NWS

Home | Current Version | Previous Version | Graphics & Text | Print | Product List | Glossary On
Versions: 1 2 3 4 5 6 7 8 9 10 11 12 13 14 15 16 17 18 19 20 21 22 23 24 25 26 27 28
000
ASUS45 KBOU 282110
RWRCO

WEATHER ROUNDUP FOR COLORADO
NATIONAL WEATHER SERVICE DENVER/BOULDER CO
300 PM MDT WED SEP 28 2016

NOTE: "FAIR" INDICATES FEW OR NO CLOUDS BELOW 12000 FEET WITH NO
SIGNIFICANT WEATHER AND/OR OBSTRUCTIONS TO VISIBILITY.

COZ001>005-013-030-031-282200-
...NORTHWEST COLORADO...

CITY           SKY/WX    TMP DP  RH WIND       PRES   REMARKS
CRAIG          FAIR      78  28  16 NW6       30.27F
HAYDEN         FAIR      75  30  19 W13       30.29S
MEEKER         FAIR      79  30  16 VRB3      30.27F
MOUNT WERNER   NOT AVBL
STEAMBOAT SPGS FAIR      76  28  17 CALM      30.29F
WALDEN           N/A     73  21  14 N3        30.41F
$$

COZ006>008-011-282200-
...WEST CENTRAL VALLEYS...

CITY           SKY/WX    TMP DP  RH WIND       PRES   REMARKS
GRAND JUNCTION FAIR      82  36  19 W7        30.17F
MONTROSE       FAIR      78  38  23 W10       30.24F
EAGLE          SUNNY     79  27  14 CALM      30.29F
RIFLE          FAIR      79  36  21 NW7       30.21F
DELTA          FAIR      84  34  16 SW3       30.19F
NUCLA          FAIR      79  32  18 N8        30.29S
$$

COZ017>023-064>068-282200-
...SOUTHWEST COLORADO...

CITY           SKY/WX    TMP DP  RH WIND       PRES   REMARKS
DURANGO        FAIR      76  28  17 SE14G25   30.32F
CORTEZ         FAIR      80  34  19 S10       30.26F
PAGOSA SPRINGS FAIR      74  23  14 S8        30.39S
TELLURIDE      FAIR      68  27  21 W5        30.47F
WOLF CREEK PAS PTSUNNY   50  28  43 SW10G20   30.71S
$$

COZ009-010-012-014-032>034-037-058>063-282200-
...CENTRAL COLORADO...

CITY           SKY/WX    TMP DP  RH WIND       PRES   REMARKS
ASPEN          FAIR      74  24  15 CALM      30.35F
BUENA VISTA    FAIR      74  20  13 SE10G17   30.42S
COPPER MTN     FAIR      61  18  18 SE13      30.69R
BERTHOUD PASS  FAIR      45  32  61 MISG      30.72F
COTTONWOOD PAS FAIR      72  14  11 E5        30.56S
GUNNISON       FAIR      78  27  15 E15G21    30.36S
KREMMLING      FAIR      79  12   8 N7        30.35F
LEADVILLE      FAIR      64  15  15 SE8G21    30.52F
MONARCH PASS   FAIR      52  25  35 NE16G24   30.79S
SALIDA         FAIR      78  24  13 E9G18     30.46F
SUNLIGHT       CLOUDY    59  32  36 NW3       30.62S
WILKERSON PASS PTSUNNY   61  19  20 CALM      30.69S
$$

COZ069>075-282200-
...SAN LUIS VALLEY/SANGRE DE CRISTO MOUNTAINS...

CITY           SKY/WX    TMP DP  RH WIND       PRES   REMARKS
ALAMOSA        FAIR      75  26  16 VRB6      30.38F
LA VETA PASS   FAIR      63  28  27 MISG      30.59F
SAGUACHE       NOT AVBL
$$

COZ035-036-038>040-282200-
...NORTHERN COLORADO FRONT RANGE...

CITY           SKY/WX    TMP DP  RH WIND       PRES   REMARKS
DENVER INTL AP FAIR      81  28  14 E9G17     30.30F
DMNS CITY PARK   N/A     81  29  15 E5G10     30.28S
AURORA         MOSUNNY   82  29  14 SE5G17    30.31F
FRONT RANGE AP MOSUNNY   82  27  13 E7G20     30.32F
ERIE MUNI ARPT FAIR      80  24  12 CALM      30.28F
BOULDER MUN AP FAIR      79  32  18 NE6       30.30S
CENTENNIAL     FAIR      79  27  14 VRB6      30.31F
BROOMFIELD     MOSUNNY   81  28  15 SE5       30.32F
FORT COLLINS   FAIR      81  34  18 SE6       30.26F
LONGMONT       FAIR      83  31  15 E5        30.30F
$$

COZ041-046-047-076>085-087-088-282200-
...PIKES PEAK/PALMER DIVIDE AND SOUTHERN FOOTHILLS...

CITY           SKY/WX    TMP DP  RH WIND       PRES   REMARKS
COLO. SPRINGS  FAIR      78  27  15 SE12      30.36S
A. F. ACADEMY  FAIR      77  27  15 SE16      30.36S
SCHRIEVER AFB  NOT AVBL
ELLICOTT       NOT AVBL
FALCON         FAIR      76  24  14 S8G17     30.41S
FORT CARSON    FAIR      78  29  16 VRB6      30.33S
LIMON          FAIR      80  29  15 VRB7      30.31F
MONUMENT HILL  FAIR      73  27  17 S12G20    30.40F
TRINIDAD       FAIR      81  25  12 E8        30.31F
$$

COZ042>045-048>051-090-091-282200-
...NORTHEAST COLORADO...

CITY           SKY/WX    TMP DP  RH WIND       PRES   REMARKS
GREELEY ARPT   FAIR      79  36  21 SE7       30.28F
AKRON          FAIR      81  36  19 VRB3      30.29S
BURLINGTON     FAIR      82  34  17 NE6       30.26S
WRAY           NOT AVBL
STERLING       FAIR      81  41  24 E7        30.25S
HOLYOKE        FAIR      84  34  16 E10G16    30.25S
FORT MORGAN    FAIR      82  30  15 NE6       30.29S
$$

COZ086-089-092>099-282200-
...SOUTHEAST COLORADO...

CITY           SKY/WX    TMP DP  RH WIND       PRES   REMARKS
PUEBLO         FAIR      85  33  15 SE10      30.25F
LA JUNTA       FAIR      85  34  16 S6        30.23F
LAMAR          FAIR      87  35  15 NE10      30.19F
SPRINGFIELD      N/A     84  32  15 VRB3      30.24S
$$




USA.gov is the U.S. government's official web portal to all federal, state and local government web resources and services.